Sigfox identifier Datetime Temperature Humidity SNR
002EEEFF 2019-04-23 15:12:16 21.6 29 20.5
002EEEFF 2019-04-23 14:03:29 21.6 29 20.4
002EEEFF 2019-04-23 13:29:07 21.4 29 20.3
002EEEFF 2019-04-23 12:20:25 21.4 29 20.4
002EEEFF 2019-04-23 11:46:04 21.4 29 20.4
002EEEFF 2019-04-23 11:11:46 21.4 29 20.5
002EEEFF 2019-04-23 10:37:25 21.2 28 20.5
002EEEFF 2019-04-23 10:03:06 21.2 28 20.6
002EEEFF 2019-04-23 09:28:45 21.2 28 20.8
002EEEFF 2019-04-23 08:54:21 21.2 28 20.8
002EEEFF 2019-04-23 08:20:00 21.2 28 19.1
002EEEFF 2019-04-23 07:45:39 21.2 28 18.9
002EEEFF 2019-04-23 07:11:18 21.1 28 16.9
002EEEFF 2019-04-23 06:36:57 21.2 28 17
002EEEFF 2019-04-23 06:02:33 21.1 28 17.1
002EEEFF 2019-04-23 05:28:11 21.1 28 17.4
002EEEFF 2019-04-23 04:53:49 21.2 28 17.4
002EEEFF 2019-04-23 04:19:25 21.2 28 17.5
002EEEFF 2019-04-23 03:45:04 21.2 28 17.4
002EEEFF 2019-04-23 03:10:42 21.2 28 17.1
002EEEFF 2019-04-23 02:36:20 21.2 28 17.1
002EEEFF 2019-04-23 02:01:57 21.2 28 17.1
002EEEFF 2019-04-23 01:27:35 21.2 28 17.5
002EEEFF 2019-04-23 00:53:11 21.2 28 17.5
002EEEFF 2019-04-23 00:18:48 21.2 28 17.7
002EEEFF 2019-04-22 23:44:27 21.2 28 17.7
002EEEFF 2019-04-22 23:10:06 21.1 28 17.6
002EEEFF 2019-04-22 22:35:41 21.2 28 17.6
002EEEFF 2019-04-22 22:01:19 21.1 28 17.5
002EEEFF 2019-04-22 21:26:58 21.1 28 17.6
002EEEFF 2019-04-22 20:52:39 21.1 28 17.3
002EEEFF 2019-04-22 20:18:18 21 28 17.3
002EEEFF 2019-04-22 19:43:58 21 28 17
002EEEFF 2019-04-22 19:09:39 21.1 28 16.7
002EEEFF 2019-04-22 18:35:18 21.1 28 16.7
002EEEFF 2019-04-22 18:00:56 21.1 28 16.7
002EEEFF 2019-04-22 17:26:36 21.2 28 16.7
002EEEFF 2019-04-22 16:52:15 21.2 28 15.5
002EEEFF 2019-04-22 16:17:55 21.1 28 15.7
002EEEFF 2019-04-22 15:43:33 21.2 28 15.6
002EEEFF 2019-04-22 15:09:10 21.1 28 15.2
002EEEFF 2019-04-22 14:34:48 21.2 28 15.3
002EEEFF 2019-04-22 14:00:26 21.2 27 15.1
002EEEFF 2019-04-22 13:26:03 21.2 27 15.1
002EEEFF 2019-04-22 12:51:39 21.2 27 15.4
002EEEFF 2019-04-22 12:17:14 21.2 27 15.3
002EEEFF 2019-04-22 11:42:52 21.2 27 15.2
002EEEFF 2019-04-22 11:08:28 21.2 27 15.4
002EEEFF 2019-04-22 10:34:05 21.2 27 15.1
002EEEFF 2019-04-22 09:59:41 21.2 27 15
002EEEFF 2019-04-22 09:25:17 21.2 27 15
002EEEFF 2019-04-22 08:50:54 21.2 27 15
002EEEFF 2019-04-22 08:16:30 21.2 27 15
002EEEFF 2019-04-22 07:42:07 21.2 27 15
002EEEFF 2019-04-22 07:07:44 21.2 27 15
002EEEFF 2019-04-22 06:33:20 21.2 27 15
002EEEFF 2019-04-22 05:58:56 21.2 27 15.1
002EEEFF 2019-04-22 05:24:34 21.2 27 15.1
002EEEFF 2019-04-22 04:50:11 21.2 27 15.1
002EEEFF 2019-04-22 04:15:48 21.2 27 15.3
002EEEFF 2019-04-22 03:41:26 21.2 27 15.3
002EEEFF 2019-04-22 03:07:01 21.3 27 15.3
002EEEFF 2019-04-22 02:32:39 21.2 27 15.4
002EEEFF 2019-04-22 01:58:14 21.3 27 15.2
002EEEFF 2019-04-22 01:23:50 21.4 27 15.6
002EEEFF 2019-04-22 00:49:26 21.4 27 15.4
002EEEFF 2019-04-22 00:15:02 21.4 27 15.4
002EEEFF 2019-04-21 23:40:39 21.4 27 15.4
002EEEFF 2019-04-21 23:06:16 21.4 27 15.6
002EEEFF 2019-04-21 22:31:52 21.4 27 15.5
002EEEFF 2019-04-21 21:57:28 21.4 27 15.6
002EEEFF 2019-04-21 21:23:05 21.4 27 15.6
002EEEFF 2019-04-21 20:48:43 21.4 27 14.9
002EEEFF 2019-04-21 20:14:19 21.4 27 14.9
002EEEFF 2019-04-21 19:39:57 21.3 27 14.7
002EEEFF 2019-04-21 19:05:35 21.2 27 14.6
002EEEFF 2019-04-21 18:31:15 21.3 27 14.5
002EEEFF 2019-04-21 17:56:55 21.2 27 14.5
002EEEFF 2019-04-21 17:22:35 21.2 27 14.5
002EEEFF 2019-04-21 16:48:16 21.2 27 14.3
002EEEFF 2019-04-21 16:13:56 21.2 27 14.6
002EEEFF 2019-04-21 15:39:36 21.2 27 14.6
002EEEFF 2019-04-21 15:05:16 21.1 27 14.6
002EEEFF 2019-04-21 14:30:56 21.2 27 18.3
002EEEFF 2019-04-21 13:56:35 21.1 27 18.1
002EEEFF 2019-04-21 13:22:15 21.1 27 18.1
002EEEFF 2019-04-21 12:47:55 21.1 27 18.1
002EEEFF 2019-04-21 12:13:34 21 27 18.1
002EEEFF 2019-04-21 11:39:14 21 27 18.2
002EEEFF 2019-04-21 11:04:54 21 27 18
002EEEFF 2019-04-21 10:30:35 21.1 27 18
002EEEFF 2019-04-21 09:56:13 21 27 18
002EEEFF 2019-04-21 09:21:49 21.1 27 18
002EEEFF 2019-04-21 08:47:27 21.1 27 18
002EEEFF 2019-04-21 08:13:05 21 27 17.8
002EEEFF 2019-04-21 07:38:44 21.2 27 17.8
002EEEFF 2019-04-21 07:04:23 21.2 27 17.8
002EEEFF 2019-04-21 06:30:03 21.2 27 17.8
002EEEFF 2019-04-21 05:55:41 21.2 27 17.8
002EEEFF 2019-04-21 05:21:20 21.2 26 17.7
002EEEFF 2019-04-21 04:46:58 21.2 26 17.8
002EEEFF 2019-04-21 04:12:37 21.2 26 17.9
002EEEFF 2019-04-21 03:38:18 21.2 26 17.9
002EEEFF 2019-04-21 03:03:52 21.2 26 17.9
002EEEFF 2019-04-21 02:29:29 21.2 26 17.9
002EEEFF 2019-04-21 01:55:07 21.2 26 17.7
002EEEFF 2019-04-21 01:20:45 21.2 26 17.7
002EEEFF 2019-04-21 00:46:23 21.2 26 17.7
002EEEFF 2019-04-21 00:12:00 21.2 26 13
002EEEFF 2019-04-20 23:37:37 21.2 26 13
002EEEFF 2019-04-20 23:03:14 21.2 26 13.1
002EEEFF 2019-04-20 22:28:54 21.2 26 13.1
002EEEFF 2019-04-20 21:54:29 21.2 26 13.1
002EEEFF 2019-04-20 21:20:05 21.2 26 12.5
002EEEFF 2019-04-20 20:45:42 21.2 26 12.6
002EEEFF 2019-04-20 20:11:20 21.2 26 12.6
002EEEFF 2019-04-20 19:36:57 21.2 26 12.6
002EEEFF 2019-04-20 19:02:34 21.2 26 12
002EEEFF 2019-04-20 18:28:11 21.2 26 12.5
002EEEFF 2019-04-20 17:53:48 21.2 26 12.4
002EEEFF 2019-04-20 17:19:27 21.2 26 12.2
002EEEFF 2019-04-20 16:45:04 21.2 26 12.1
002EEEFF 2019-04-20 16:10:42 21.2 26 11.8
002EEEFF 2019-04-20 15:36:21 21.2 25 12
002EEEFF 2019-04-20 15:01:55 21.2 25 11.8
002EEEFF 2019-04-20 14:27:36 21.1 25 11
002EEEFF 2019-04-20 13:53:17 21.1 25 11.4
002EEEFF 2019-04-20 13:18:51 21 25 11.4
002EEEFF 2019-04-20 12:44:30 21 25 11.4
002EEEFF 2019-04-20 11:35:45 21 25 11.6
002EEEFF 2019-04-20 11:01:23 21 25 11.5
002EEEFF 2019-04-20 10:27:01 21 25 11.7
002EEEFF 2019-04-20 09:52:39 21 25 12
002EEEFF 2019-04-20 09:18:16 21 25 12
002EEEFF 2019-04-20 08:43:52 21 25 12.3
002EEEFF 2019-04-20 08:09:30 21 25 12.6
002EEEFF 2019-04-20 07:00:49 21 25 12.6
002EEEFF 2019-04-20 06:26:24 21 25 12.6
002EEEFF 2019-04-20 05:52:00 21 25 12.5
002EEEFF 2019-04-20 05:17:37 21 25 13
002EEEFF 2019-04-20 04:43:12 21 25 13
002EEEFF 2019-04-20 04:08:50 21 25 13.1
002EEEFF 2019-04-20 03:34:28 21 25 13.1
002EEEFF 2019-04-20 03:00:04 21 25 12.8
002EEEFF 2019-04-20 02:25:42 21 25 13.1
002EEEFF 2019-04-20 01:51:19 21 25 13.4
002EEEFF 2019-04-20 01:16:59 21 25 13.6
002EEEFF 2019-04-20 00:08:12 20.9 25 13.6
002EEEFF 2019-04-19 23:33:50 20.9 25 13.6
002EEEFF 2019-04-19 22:59:28 21 25 13.6
002EEEFF 2019-04-19 22:25:02 20.9 25 13.7
002EEEFF 2019-04-19 21:50:39 21 25 13.4
002EEEFF 2019-04-19 21:16:16 21 25 13.5
002EEEFF 2019-04-19 20:41:55 21 26 13.5
002EEEFF 2019-04-19 20:07:34 21 26 13.6
002EEEFF 2019-04-19 19:33:14 20.9 26 13.7
002EEEFF 2019-04-19 18:58:52 20.8 26 13.8
002EEEFF 2019-04-19 18:24:31 20.9 26 13.5
002EEEFF 2019-04-19 17:50:11 20.9 26 13.5
002EEEFF 2019-04-19 17:15:51 20.9 26 13.5
002EEEFF 2019-04-19 16:41:29 21 26 13.6
002EEEFF 2019-04-19 15:32:46 21 26 13.6
002EEEFF 2019-04-19 14:58:24 21 26 13.6
002EEEFF 2019-04-19 14:24:04 21 26 13.7
002EEEFF 2019-04-19 13:49:45 21 26 13.6
002EEEFF 2019-04-19 13:15:25 21 27 13.7
002EEEFF 2019-04-19 12:41:05 21 27 13.7
002EEEFF 2019-04-19 12:06:47 21 27 13.8
002EEEFF 2019-04-19 11:32:25 21 27 13.7
002EEEFF 2019-04-19 10:58:03 21 27 13.5
002EEEFF 2019-04-19 10:23:47 21.1 27 13.7
002EEEFF 2019-04-19 09:49:26 21.2 27 13.7
002EEEFF 2019-04-19 09:15:10 21.2 27 13.7
002EEEFF 2019-04-19 08:40:51 21.2 27 14.2
002EEEFF 2019-04-19 08:06:28 21.2 27 14.5
002EEEFF 2019-04-19 07:32:07 21.2 27 14.5
002EEEFF 2019-04-19 06:57:47 21.2 27 14.7
002EEEFF 2019-04-19 06:23:28 21.2 27 14.6
002EEEFF 2019-04-19 05:49:04 21.2 27 14.6
002EEEFF 2019-04-19 05:14:41 21.2 28 14.5
002EEEFF 2019-04-19 04:40:21 21.2 28 14.5
002EEEFF 2019-04-19 04:06:01 21.2 28 18.3
002EEEFF 2019-04-19 03:31:40 21.2 28 20.3
002EEEFF 2019-04-19 02:57:16 21.2 28 20.8
002EEEFF 2019-04-19 02:22:54 21.2 28 21.2
002EEEFF 2019-04-19 01:48:29 21.2 28 21.4
002EEEFF 2019-04-19 01:14:10 21.2 28 21.6
002EEEFF 2019-04-19 00:39:44 21.2 28 21.9
002EEEFF 2019-04-19 00:05:20 21.2 28 22.1
002EEEFF 2019-04-18 23:30:58 21.3 28 22.4
002EEEFF 2019-04-18 22:56:32 21.2 28 22.8
002EEEFF 2019-04-18 22:22:15 21.2 28 23.1
002EEEFF 2019-04-18 21:47:48 21.2 28 23.5
002EEEFF 2019-04-18 21:13:26 21.3 28 23.7
002EEEFF 2019-04-18 20:39:03 21.3 28 23.9
002EEEFF 2019-04-18 20:04:41 21.4 28 24.2
002EEEFF 2019-04-18 19:30:18 21.4 28 24.3
002EEEFF 2019-04-18 18:55:55 21.4 28 24.5
002EEEFF 2019-04-18 18:21:32 21.4 28 24.7
002EEEFF 2019-04-18 17:47:09 21.5 28 24.8
002EEEFF 2019-04-18 17:12:46 21.5 28 25
002EEEFF 2019-04-18 16:38:24 21.6 28 25.2
002EEEFF 2019-04-18 16:04:02 21.6 28 25.7
002EEEFF 2019-04-18 15:29:43 21.6 28 25.8
002EEEFF 2019-04-18 14:55:20 21.6 28 26
002EEEFF 2019-04-18 14:21:00 21.7 28 26.2
002EEEFF 2019-04-18 13:46:40 21.8 28 26.2
002EEEFF 2019-04-18 13:12:17 22 28 25.9
002EEEFF 2019-04-18 12:03:36 22.5 21 26
002EEEFF 2019-04-18 11:29:15 22.4 22 26.1
002EEEFF 2019-04-18 10:54:55 22.2 23 26.3
002EEEFF 2019-04-18 10:20:34 22.2 23 26.4
002EEEFF 2019-04-18 09:46:14 22.2 23 26.4
002EEEFF 2019-04-18 09:11:53 22.2 23 26.4
002EEEFF 2019-04-18 08:37:33 22.2 22 26.4
002EEEFF 2019-04-18 08:03:14 22.2 22 26.3
002EEEFF 2019-04-18 07:28:54 22.2 22 26.3
002EEEFF 2019-04-18 06:54:36 22.2 23 26.2
002EEEFF 2019-04-18 06:20:15 22.2 23 26.3
002EEEFF 2019-04-18 05:45:55 22.2 23 26.3
002EEEFF 2019-04-18 05:11:34 22.2 23 26.3
002EEEFF 2019-04-18 04:37:13 22.2 23 26.7
002EEEFF 2019-04-18 04:02:51 22.2 23 26.7
002EEEFF 2019-04-18 03:28:31 22.2 23 26.6
002EEEFF 2019-04-18 02:54:09 22.3 23 26.6
002EEEFF 2019-04-18 02:19:49 22.3 23 26.5
002EEEFF 2019-04-18 01:45:28 22.4 23 26.5
002EEEFF 2019-04-18 01:11:08 22.5 23 26.4
002EEEFF 2019-04-18 00:36:48 22.5 23 26.3
002EEEFF 2019-04-18 00:02:27 22.5 24 26.2
002EEEFF 2019-04-17 23:28:07 22.5 24 26.4
002EEEFF 2019-04-17 22:53:47 22.5 24 26.1
002EEEFF 2019-04-17 22:19:26 22.5 24 26
002EEEFF 2019-04-17 21:45:05 22.7 24 26.2
002EEEFF 2019-04-17 21:10:46 22.7 23 26.1
002EEEFF 2019-04-17 20:36:26 22.7 23 25.9
002EEEFF 2019-04-17 20:02:05 22.9 23 25.9
002EEEFF 2019-04-17 19:27:46 22.9 23 25.9
002EEEFF 2019-04-17 18:53:26 22.9 23 25.9
002EEEFF 2019-04-17 18:19:06 22.9 23 26.1
002EEEFF 2019-04-17 17:44:46 22.9 22 26.4
002EEEFF 2019-04-17 17:10:27 22.9 22 26.4
002EEEFF 2019-04-17 16:36:08 22.9 23 26.4
002EEEFF 2019-04-17 16:01:49 22.9 23 26.4
002EEEFF 2019-04-17 15:27:31 22.9 23 26.3
002EEEFF 2019-04-17 14:53:11 22.9 24 26.3
002EEEFF 2019-04-17 14:18:53 22.9 24 26.1
002EEEFF 2019-04-17 13:44:33 22.7 24 26.1
002EEEFF 2019-04-17 13:10:13 22.7 24 26.1
002EEEFF 2019-04-17 12:35:53 22.5 24 26.1
002EEEFF 2019-04-17 12:01:34 22.5 23 26.2
002EEEFF 2019-04-17 11:27:14 22.2 23 26.1
002EEEFF 2019-04-17 10:52:55 22.2 23 26
002EEEFF 2019-04-17 10:18:35 22.2 22 26.3
002EEEFF 2019-04-17 09:44:17 22.2 22 26.3
002EEEFF 2019-04-17 09:09:58 22.2 23 26
002EEEFF 2019-04-17 08:35:40 22.2 22 26
002EEEFF 2019-04-17 08:01:21 22.2 21 26
002EEEFF 2019-04-17 07:27:02 22.2 21 25.6
002EEEFF 2019-04-17 06:52:43 22.1 20 25.6
002EEEFF 2019-04-17 06:18:23 22 20 25.6
002EEEFF 2019-04-17 05:44:04 22.1 20 25.6
002EEEFF 2019-04-17 05:09:45 22 21 25.6
002EEEFF 2019-04-17 04:35:25 22.1 21 25.5
002EEEFF 2019-04-17 04:01:06 22.2 21 25.3
002EEEFF 2019-04-17 03:26:48 22.2 21 24.8
002EEEFF 2019-04-17 02:52:28 22.2 21 24.8
002EEEFF 2019-04-17 02:18:09 22.2 21 24.7
002EEEFF 2019-04-17 01:43:50 22.2 21 24.8
002EEEFF 2019-04-17 01:09:31 22.2 21 24.8
002EEEFF 2019-04-17 00:35:12 22.2 21 24.7
002EEEFF 2019-04-17 00:00:51 22.2 21 24.4
002EEEFF 2019-04-16 23:26:30 22.2 21 24.8
002EEEFF 2019-04-16 22:52:11 22.3 21 24.8
002EEEFF 2019-04-16 22:17:52 22.5 21 24.7
002EEEFF 2019-04-16 21:43:32 22.5 21 24.6
002EEEFF 2019-04-16 21:09:13 22.5 21 24.7
002EEEFF 2019-04-16 20:34:54 22.5 21 24.7
002EEEFF 2019-04-16 20:00:36 22.5 20 24.6
002EEEFF 2019-04-16 19:26:18 22.5 20 24.7
002EEEFF 2019-04-16 18:52:00 22.5 20 24.7
002EEEFF 2019-04-16 18:17:42 22.5 20 24.7
002EEEFF 2019-04-16 17:43:22 22.7 20 24.8
002EEEFF 2019-04-16 17:09:05 22.7 20 24.7
002EEEFF 2019-04-16 16:34:46 22.8 20 24.7
002EEEFF 2019-04-16 16:00:28 22.7 20 24.8
002EEEFF 2019-04-16 15:26:10 22.7 20 24.7
002EEEFF 2019-04-16 14:51:51 22.7 20 24.8
002EEEFF 2019-04-16 14:17:33 22.7 20 25
002EEEFF 2019-04-16 13:43:12 22.5 19 25
002EEEFF 2019-04-16 13:08:52 22.5 20 25.1
002EEEFF 2019-04-16 12:34:30 22.4 19 25.2
002EEEFF 2019-04-16 12:00:08 22.2 19 25.2
002EEEFF 2019-04-16 11:25:45 22.2 19 25.3
002EEEFF 2019-04-16 10:51:22 22.2 19 25.5
002EEEFF 2019-04-16 10:17:00 22.1 19 25.5
002EEEFF 2019-04-16 09:42:39 22.1 19 25.7
002EEEFF 2019-04-16 09:08:19 22.1 19 25.3
002EEEFF 2019-04-16 08:33:59 22.1 19 25.3
002EEEFF 2019-04-16 07:59:38 22.1 19 25.3
002EEEFF 2019-04-16 07:25:17 22.1 18 25.2
002EEEFF 2019-04-16 06:50:54 22 18 25.2
002EEEFF 2019-04-16 06:16:32 22 18 25.2
002EEEFF 2019-04-16 05:42:10 22 18 25.1
002EEEFF 2019-04-16 05:07:45 22 18 25.1
002EEEFF 2019-04-16 04:33:22 22 18 25.2
002EEEFF 2019-04-16 03:58:59 22.1 18 25.1
002EEEFF 2019-04-16 03:24:36 22.1 18 25.1
002EEEFF 2019-04-16 02:50:13 22.1 18 25.1
002EEEFF 2019-04-16 02:15:51 22.1 18 25.3
002EEEFF 2019-04-16 01:41:29 22.2 18 25.2
002EEEFF 2019-04-16 01:07:07 22.2 18 25.2
002EEEFF 2019-04-16 00:32:44 22.2 18 25.1
002EEEFF 2019-04-15 23:58:22 22.2 18 25
002EEEFF 2019-04-15 23:24:00 22.2 18 25
002EEEFF 2019-04-15 22:49:39 22.2 18 25
002EEEFF 2019-04-15 22:15:15 22.2 18 24.8
002EEEFF 2019-04-15 21:40:53 22.3 18 24.7
002EEEFF 2019-04-15 21:06:32 22.5 18 24.5
002EEEFF 2019-04-15 20:32:11 22.5 17 24.3
002EEEFF 2019-04-15 19:57:51 22.5 17 24.3
002EEEFF 2019-04-15 19:23:31 22.5 17 24.2
002EEEFF 2019-04-15 18:49:11 22.5 16 24.2
002EEEFF 2019-04-15 18:14:51 22.6 16 24.2
002EEEFF 2019-04-15 17:40:32 22.7 16 24.3
002EEEFF 2019-04-15 17:06:12 22.7 16 24.4
002EEEFF 2019-04-15 16:31:52 22.7 16 24.4
002EEEFF 2019-04-15 15:57:31 22.7 16 24.4
002EEEFF 2019-04-15 15:23:09 22.7 16 24.4
002EEEFF 2019-04-15 14:48:47 22.7 16 24.3
002EEEFF 2019-04-15 14:14:24 22.7 17 24.3
002EEEFF 2019-04-15 13:40:00 22.5 17 24.8
002EEEFF 2019-04-15 13:05:38 22.5 17 24.9
002EEEFF 2019-04-15 12:31:16 22.4 17 25
002EEEFF 2019-04-15 11:56:54 22.2 16 24.8
002EEEFF 2019-04-15 11:22:33 22.2 17 25
002EEEFF 2019-04-15 10:48:11 22.2 17 25.2
002EEEFF 2019-04-15 10:13:48 22.2 17 25.4
002EEEFF 2019-04-15 09:39:26 22.2 18 25.4
002EEEFF 2019-04-15 09:05:03 22 18 25.4
002EEEFF 2019-04-15 08:30:42 22 18 25.4
002EEEFF 2019-04-15 07:56:20 21.9 17 25.4
002EEEFF 2019-04-15 07:21:59 21.9 18 25.7
002EEEFF 2019-04-15 06:47:37 21.8 18 25.6
002EEEFF 2019-04-15 06:13:16 21.8 18 25.7
002EEEFF 2019-04-15 05:38:54 21.8 18 25.8
002EEEFF 2019-04-15 05:04:32 21.8 18 25.6
002EEEFF 2019-04-15 04:30:10 21.8 18 26
002EEEFF 2019-04-15 03:55:48 21.8 18 26.3
002EEEFF 2019-04-15 03:21:26 21.8 18 26.4
002EEEFF 2019-04-15 02:47:06 21.8 18 26.4
002EEEFF 2019-04-15 02:12:44 21.8 18 26.3
002EEEFF 2019-04-15 01:38:22 21.8 18 26.4
002EEEFF 2019-04-15 01:04:00 21.8 18 26.6
002EEEFF 2019-04-15 00:29:36 21.8 19 26.8
002EEEFF 2019-04-14 23:55:14 21.8 19 26.8
002EEEFF 2019-04-14 23:20:52 21.8 18 26.5
002EEEFF 2019-04-14 22:46:28 21.8 19 26.7
002EEEFF 2019-04-14 22:12:07 21.9 19 26.7
002EEEFF 2019-04-14 21:37:45 22 19 26.7
002EEEFF 2019-04-14 21:03:22 22 19 26.7
002EEEFF 2019-04-14 20:29:00 22 19 26.5
002EEEFF 2019-04-14 19:54:40 22.1 19 26.5
002EEEFF 2019-04-14 19:20:20 22.1 19 26.6
002EEEFF 2019-04-14 18:45:59 22 19 26.5
002EEEFF 2019-04-14 18:11:39 22 19 26.6
002EEEFF 2019-04-14 17:37:19 22 19 26.6
002EEEFF 2019-04-14 17:02:59 21.9 19 26.4
002EEEFF 2019-04-14 16:28:38 21.8 19 26.4
002EEEFF 2019-04-14 15:54:15 21.8 19 26.4
002EEEFF 2019-04-14 15:19:51 21.9 19 26.4
002EEEFF 2019-04-14 14:45:28 21.9 19 26.5
002EEEFF 2019-04-14 14:11:05 21.9 19 26.2
002EEEFF 2019-04-14 13:36:42 21.9 19 25.8
002EEEFF 2019-04-14 13:02:18 22 19 25.8
002EEEFF 2019-04-14 12:27:55 22 19 25.7
002EEEFF 2019-04-14 11:53:31 22 19 25.9
002EEEFF 2019-04-14 11:19:09 21.9 20 26.1
002EEEFF 2019-04-14 10:44:46 22 19 25.8
002EEEFF 2019-04-14 10:10:23 21.8 19 26
002EEEFF 2019-04-14 09:36:00 21.8 19 26
002EEEFF 2019-04-14 09:01:37 21.9 19 26.1
002EEEFF 2019-04-14 08:27:13 21.8 19 25.7
002EEEFF 2019-04-14 07:52:50 21.8 19 26
002EEEFF 2019-04-14 07:18:27 21.8 19 26.1
002EEEFF 2019-04-14 06:44:04 21.8 19 26.4
002EEEFF 2019-04-14 06:09:41 21.8 19 26.3
002EEEFF 2019-04-14 05:35:17 21.8 19 26.2
002EEEFF 2019-04-14 05:00:54 21.8 19 26.2
002EEEFF 2019-04-14 04:26:30 21.8 19 26.3
002EEEFF 2019-04-14 03:52:06 21.8 19 26.3
002EEEFF 2019-04-14 03:17:42 21.9 19 26.4
002EEEFF 2019-04-14 02:43:19 22 19 26.4
002EEEFF 2019-04-14 02:08:57 22 19 26.5
002EEEFF 2019-04-14 01:34:37 22 19 26.5
002EEEFF 2019-04-14 01:00:16 22 19 26.5
002EEEFF 2019-04-14 00:25:55 22 19 26.5
002EEEFF 2019-04-13 23:51:33 22 19 26.5
002EEEFF 2019-04-13 23:17:11 22 18 26.4
002EEEFF 2019-04-13 22:42:50 22 18 26.5
002EEEFF 2019-04-13 22:08:28 22 18 26.5
002EEEFF 2019-04-13 21:34:07 22 18 26.5
002EEEFF 2019-04-13 20:59:44 22 18 26.2
002EEEFF 2019-04-13 20:25:22 22.1 18 26.2
002EEEFF 2019-04-13 19:50:59 22.1 18 25.9
002EEEFF 2019-04-13 19:16:37 22.2 18 25.7
002EEEFF 2019-04-13 18:42:17 22.2 19 25.8
002EEEFF 2019-04-13 18:07:56 22.2 18 25.8
002EEEFF 2019-04-13 17:33:36 22.2 18 25.5
002EEEFF 2019-04-13 16:59:14 22.2 18 25.6
002EEEFF 2019-04-13 16:24:52 22.2 19 25.4
002EEEFF 2019-04-13 15:50:30 22.2 19 25.4
002EEEFF 2019-04-13 15:16:08 22.2 19 25.3
002EEEFF 2019-04-13 14:41:47 22.2 18 25.2
002EEEFF 2019-04-13 14:07:26 22.3 18 25.5
002EEEFF 2019-04-13 13:33:05 22.4 18 25.5
002EEEFF 2019-04-13 12:58:43 22.4 18 25.4
002EEEFF 2019-04-13 12:24:21 22.5 18 25.5
002EEEFF 2019-04-13 11:49:59 22.5 19 25.6
002EEEFF 2019-04-13 11:15:35 22.4 19 25.5
002EEEFF 2019-04-13 10:41:13 22.3 19 25.5
002EEEFF 2019-04-13 10:06:51 22.3 18 25.5
002EEEFF 2019-04-13 09:32:28 22.2 18 25.4
002EEEFF 2019-04-13 08:58:05 22.2 18 25.5
002EEEFF 2019-04-13 08:23:45 22.3 18 25.5
002EEEFF 2019-04-13 07:49:24 22.2 18 25.5
002EEEFF 2019-04-13 07:15:03 22.2 18 25.3
002EEEFF 2019-04-13 06:40:43 22.3 18 25.3
002EEEFF 2019-04-13 06:06:22 22.2 18 25.2
002EEEFF 2019-04-13 05:32:00 22.3 18 25.3
002EEEFF 2019-04-13 04:57:38 22.2 18 25.3
002EEEFF 2019-04-13 04:23:14 22.2 18 25.6
002EEEFF 2019-04-13 03:48:51 22.3 18 25.5
002EEEFF 2019-04-13 03:14:28 22.5 18 25.3
002EEEFF 2019-04-13 02:40:04 22.5 18 25.1
002EEEFF 2019-04-13 02:05:40 22.5 18 25
002EEEFF 2019-04-13 01:31:17 22.5 19 25.1
002EEEFF 2019-04-13 00:56:53 22.5 19 25.2
002EEEFF 2019-04-13 00:22:29 22.5 19 25.3
002EEEFF 2019-04-12 23:48:05 22.5 19 24.8
002EEEFF 2019-04-12 23:13:42 22.7 19 24.7
002EEEFF 2019-04-12 22:39:20 22.7 19 24.7
002EEEFF 2019-04-12 22:04:57 22.7 19 24.6
002EEEFF 2019-04-12 21:30:34 22.7 19 24.3
002EEEFF 2019-04-12 20:56:10 22.7 20 24.4
002EEEFF 2019-04-12 20:21:46 22.7 19 24.5
002EEEFF 2019-04-12 19:47:24 22.7 19 24.5
002EEEFF 2019-04-12 19:13:00 22.8 19 24.6
002EEEFF 2019-04-12 18:38:37 22.9 18 24.5
002EEEFF 2019-04-12 18:04:15 22.9 17 24.3
002EEEFF 2019-04-12 17:29:52 23.1 17 24.2
002EEEFF 2019-04-12 16:55:27 23.1 18 24.5
002EEEFF 2019-04-12 16:21:02 23.1 18 24.7
002EEEFF 2019-04-12 15:46:38 23.1 18 25.1
002EEEFF 2019-04-12 15:12:15 22.9 18 25.2
002EEEFF 2019-04-12 14:37:51 22.8 19 25.7
002EEEFF 2019-04-12 14:03:27 22.5 19 17.7
002EEEFF 2019-04-12 13:29:03 21.8 21 10.5
002EEEFF 2019-04-12 12:54:37 20.7 39 0